GW2278 Weather Reports


time (UTC)temp
C
wind
direction
speed
KPH
gust
KPH
rain 1hr
cm
rain 24hr
cm
rain mn
cm
humidity
%
barometer
mb
20260502180353 11 285 3.2 9.7 0.00 0.15 0.15 85 1008.9
20260502170307 11 204 3.2 11.3 0.00 0.15 0.15 85 1009.1
20260502164254 10 114 3.2 8.0 0.00 0.15 0.15 86 1009.6
20260502163750 10 215 3.2 16.1 0.00 0.15 0.15 86 1009.4
20260502163247 10 207 8.0 11.3 0.00 0.15 0.15 86 1009.4
20260502162744 10 118 11.3 11.3 0.00 0.15 0.15 86 1009.6
20260502162241 10 105 3.2 9.7 0.00 0.15 0.15 86 1009.4
20260502161738 10 88 6.4 12.9 0.00 0.15 0.15 85 1009.4
20260502161234 10 112 8.0 9.7 0.00 0.15 0.15 86 1009.6
20260502160732 10 124 8.0 14.5 0.00 0.15 0.15 86 1009.6
20260502160231 10 106 6.4 8.0 0.00 0.15 0.15 87 1009.4
20260502152155 10 114 3.2 8.0 0.00 0.15 0.15 88 1010.1
20260502151652 10 131 0.0 8.0 0.00 0.15 0.15 88 1010.3
20260502151150 10 106 8.0 9.7 0.00 0.15 0.15 88 1010.3
20260502150647 10 109 6.4 12.9 0.00 0.15 0.15 88 1010.2
20260502150143 10 211 4.8 9.7 0.00 0.15 0.15 86 1010.3
20260502140107 10 136 6.4 8.0 0.00 0.15 0.15 88 1010.2
20260502130532 8 170 3.2 4.8 0.00 0.15 0.15 97 1009.9
20260502123515 8 50 3.2 8.0 0.00 0.15 0.15 98 1009.8
20260502123011 8 83 3.2 4.8 0.00 0.15 0.15 98 1010.3
20260502122508 7 67 4.8 12.9 0.00 0.15 0.15 98 1010.3
20260502122006 7 91 3.2 12.9 0.05 0.15 0.15 98 1010.5
20260502121503 7 74 3.2 6.4 0.18 0.15 0.15 98 1010.7
20260502121000 7 86 4.8 4.8 0.30 0.13 0.13 98 1010.6
20260502120456 7 88 1.6 4.8 0.30 0.10 0.10 98 1010.8
20260502115451 7 182 3.2 6.4 0.05 0.05 0.05 98 1011.1
20260502114947 7 119 3.2 4.8 0.13 0.05 0.05 98 1010.8
20260502114444 7 48 0.0 3.2 0.05 0.05 0.05 98 1010.9
20260502113941 7 196 0.0 4.8 0.05 0.05 0.05 98 1010.8
20260502113438 7 38 0.0 6.4 0.05 0.05 0.05 98 1010.9
20260502112937 7 116 0.0 4.8 0.00 0.03 0.03 98 1010.7
20260502112434 7 49 1.6 4.8 0.00 0.03 0.03 97 1010.8
20260502111931 7 294 0.0 11.3 0.00 0.03 0.03 97 1010.6
20260502111428 7 301 3.2 4.8 0.00 0.03 0.03 97 1011.1
20260502110926 7 309 1.6 4.8 0.00 0.03 0.03 97 1010.7
20260502110424 7 309 0.0 14.5 0.00 0.03 0.03 98 1010.9
20260502105920 7 247 1.6 3.2 0.00 0.03 0.03 97 1010.6
20260502105417 7 189 3.2 4.8 0.00 0.03 0.03 97 1010.5
20260502104916 7 83 1.6 3.2 0.00 0.03 0.03 97 1010.4
20260502104412 7 112 3.2 6.4 0.00 0.03 0.03 97 1010.1
20260502103910 7 218 3.2 4.8 0.00 0.03 0.03 97 1010.0
20260502103408 7 170 3.2 3.2 0.00 0.03 0.03 97 1009.8
20260502102904 7 64 1.6 4.8 0.00 0.03 0.03 96 1009.7
20260502102401 7 127 4.8 4.8 0.00 0.03 0.03 96 1010.0
20260502101858 7 128 0.0 3.2 0.05 0.03 0.03 96 1009.9
20260502101356 7 24 1.6 4.8 0.00 0.03 0.03 96 1010.0
20260502100854 7 53 3.2 3.2 0.00 0.03 0.03 96 1009.8
20260502100353 7 135 0.0 3.2 0.00 0.03 0.03 96 1010.1
20260502091327 7 297 0.0 3.2 0.00 0.00 0.00 94 1009.8
20260502090825 7 121 0.0 4.8 0.00 0.00 0.00 94 1009.6
20260502090321 7 133 3.2 4.8 0.00 0.00 0.00 94 1009.6
20260502071216 8 63 3.2 4.8 0.00 0.00 0.00 85 1009.8
20260502070715 8 48 0.0 4.8 0.00 0.00 0.00 84 1010.0
20260502070212 8 143 3.2 6.4 0.00 0.00 0.00 84 1010.0
20260502065710 8 182 1.6 4.8 0.00 0.00 0.00 84 1010.0
20260502065208 8 156 3.2 3.2 0.00 0.00 0.00 84 1009.7
20260502064706 8 43 1.6 4.8 0.00 0.00 0.00 83 1009.8
20260502064203 8 208 1.6 6.4 0.00 0.00 0.00 83 1010.0
20260502063701 8 86 3.2 4.8 0.00 0.00 0.00 83 1009.7
20260502063159 8 177 3.2 8.0 0.00 0.00 0.00 82 1009.9
20260502062655 8 188 1.6 6.4 0.00 0.00 0.00 82 1009.9
20260502062153 8 150 6.4 9.7 0.00 0.00 0.00 82 1010.1
20260502061651 8 209 6.4 8.0 0.00 0.00 0.00 82 1010.1
20260502061148 8 194 3.2 4.8 0.00 0.00 0.00 81 1010.0
20260502060648 8 223 4.8 6.4 0.00 0.00 0.00 81 1009.9
20260502060145 8 162 4.8 8.0 0.00 0.00 0.00 80 1010.1
20260502055643 8 219 1.6 4.8 0.00 0.00 0.00 80 1010.0
20260502055141 8 165 8.0 11.3 0.00 0.00 0.00 80 1009.9
20260502054640 8 149 0.0 4.8 0.00 0.00 0.00 79 1010.1
20260502054137 8 126 0.0 6.4 0.00 0.00 0.00 79 1010.0
20260502053634 8 171 3.2 4.8 0.00 0.00 0.00 79 1010.2
20260502053131 8 199 3.2 6.4 0.00 0.00 0.00 79 1010.1
20260502052629 8 196 3.2 8.0 0.00 0.00 0.00 79 1010.1
20260502052127 8 177 3.2 6.4 0.00 0.00 0.00 78 1010.2
20260502051625 8 142 3.2 8.0 0.00 0.00 0.00 78 1010.2
20260502051123 8 169 4.8 8.0 0.00 0.00 0.00 78 1010.3
20260502050619 9 183 6.4 11.3 0.00 0.00 0.00 78 1010.3
20260502050116 9 151 4.8 6.4 0.00 0.00 0.00 77 1010.3
20260502045612 9 160 3.2 8.0 0.00 0.00 0.00 77 1010.3
20260502045110 9 186 3.2 8.0 0.00 0.00 0.00 77 1010.2
20260502044606 9 199 3.2 8.0 0.00 0.00 0.00 76 1010.4
20260502044103 9 179 3.2 9.7 0.00 0.00 0.00 76 1010.3
20260502043600 9 173 3.2 9.7 0.00 0.00 0.00 76 1010.2
20260502043057 9 178 4.8 6.4 0.00 0.00 0.00 75 1010.1
20260502042551 9 168 0.0 9.7 0.00 0.00 0.00 75 1010.4
20260502042049 9 192 3.2 8.0 0.00 0.00 0.00 74 1010.3
20260502041546 9 204 1.6 6.4 0.00 0.00 0.00 74 1010.3
20260502041043 9 235 4.8 8.0 0.00 0.00 0.00 74 1010.1
20260502040539 10 168 3.2 4.8 0.00 0.00 0.00 74 1010.2
20260502040037 10 214 3.2 8.0 0.00 0.00 0.00 73 1010.1
20260502035532 10 227 4.8 17.7 0.00 0.00 0.00 73 1010.2
20260502035030 10 219 1.6 8.0 0.00 0.00 0.00 73 1010.4
20260502034528 10 164 3.2 4.8 0.00 0.00 0.00 73 1010.4
20260502034026 10 223 1.6 4.8 0.00 0.00 0.00 73 1010.1
20260502033524 10 195 0.0 8.0 0.00 0.00 0.00 73 1010.3
20260502033021 10 194 4.8 11.3 0.00 0.00 0.00 73 1010.4
20260502032517 10 184 4.8 4.8 0.00 0.00 0.00 73 1010.4
20260502032014 10 208 4.8 4.8 0.00 0.00 0.00 72 1010.5
20260502031512 10 213 4.8 9.7 0.00 0.00 0.00 72 1010.3
20260502031010 10 219 3.2 8.0 0.00 0.00 0.00 72 1010.4
20260502030508 10 177 6.4 9.7 0.00 0.00 0.00 72 1010.4
20260502030006 10 210 1.6 9.7 0.00 0.00 0.00 71 1010.6
20260502025503 10 185 4.8 8.0 0.00 0.00 0.00 71 1010.6
20260502025001 10 171 3.2 6.4 0.00 0.00 0.00 71 1010.3
20260502024458 10 162 3.2 8.0 0.00 0.00 0.00 70 1010.5
20260502023956 10 151 3.2 6.4 0.00 0.00 0.00 70 1010.7
20260502023453 10 206 4.8 8.0 0.00 0.00 0.00 69 1010.5
20260502022951 10 155 3.2 9.7 0.00 0.00 0.00 69 1010.5
20260502022447 10 156 4.8 8.0 0.00 0.00 0.00 69 1010.3
20260502021944 10 163 6.4 8.0 0.00 0.00 0.00 68 1010.4
20260502021442 10 186 4.8 8.0 0.00 0.00 0.00 68 1010.2
20260502020939 10 207 3.2 14.5 0.00 0.00 0.00 67 1010.4
20260502020437 10 225 8.0 14.5 0.00 0.00 0.00 67 1010.4
20260502015933 10 170 3.2 9.7 0.00 0.00 0.00 67 1010.6
20260502015431 10 131 4.8 8.0 0.00 0.00 0.00 66 1010.4
20260502014927 11 176 6.4 8.0 0.00 0.00 0.00 64 1010.4
20260502014424 11 169 6.4 11.3 0.00 0.00 0.00 63 1010.4
20260502013921 11 151 6.4 11.3 0.00 0.00 0.00 63 1010.3
20260502013416 11 167 1.6 8.0 0.00 0.00 0.00 62 1010.3
20260502012913 11 188 4.8 8.0 0.00 0.00 0.00 60 1010.2
20260502012411 11 137 3.2 12.9 0.00 0.00 0.00 59 1010.3
20260502011908 11 190 4.8 4.8 0.00 0.00 0.00 58 1010.4
20260502011404 11 152 3.2 6.4 0.00 0.00 0.00 56 1010.3
20260502010901 11 161 3.2 6.4 0.00 0.00 0.00 55 1010.0
20260502010358 11 162 6.4 11.3 0.00 0.00 0.00 54 1010.2
20260502005854 11 190 3.2 9.7 0.00 0.00 0.00 52 1009.9
20260502005352 11 171 4.8 11.3 0.00 0.00 0.00 51 1009.8
20260502004850 11 222 14.5 20.9 0.00 0.00 0.00 51 1009.9
20260502004345 11 192 9.7 16.1 0.00 0.00 0.00 50 1009.5
20260502003843 11 216 4.8 8.0 0.00 0.00 0.00 50 1009.7
20260502003340 11 149 0.0 4.8 0.00 0.00 0.00 51 1009.7
20260502002836 11 154 0.0 4.8 0.00 0.00 0.00 51 1009.6
20260502002334 12 167 0.0 4.8 0.00 0.00 0.00 50 1009.6
20260502001831 11 210 3.2 4.8 0.00 0.00 0.00 51 1009.3
20260502001329 12 175 4.8 4.8 0.00 0.00 0.00 49 1009.2
20260502000826 11 233 3.2 9.7 0.00 0.00 0.00 51 1009.4
20260502000325 11 192 3.2 6.4 0.00 0.00 0.00 50 1009.2
20260501235820 12 78 1.6 3.2 0.00 0.00 0.00 48 1008.9
20260501235316 12 4 0.0 3.2 0.00 0.00 0.00 46 1008.8
20260501234811 12 23 3.2 4.8 0.00 0.00 0.00 46 1008.8
20260501234309 12 34 3.2 4.8 0.00 0.00 0.00 46 1008.7
20260501233807 12 31 0.0 3.2 0.00 0.00 0.00 46 1008.6
20260501233304 12 17 3.2 3.2 0.00 0.00 0.00 46 1008.7
20260501232759 13 338 0.0 3.2 0.00 0.00 0.00 48 1008.8
20260501232257 13 306 0.0 1.6 0.00 0.00 0.00 45 1008.6
20260501231754 13 269 0.0 9.7 0.00 0.00 0.00 43 1008.3
20260501231252 13 357 1.6 4.8 0.00 0.00 0.00 45 1008.4
20260501230750 14 296 0.0 3.2 0.00 0.00 0.00 44 1008.4
20260501230249 14 258 4.8 12.9 0.00 0.00 0.00 41 1008.6
20260501225746 14 278 3.2 3.2 0.00 0.00 0.00 45 1008.6
20260501225243 15 256 3.2 8.0 0.00 0.00 0.00 40 1008.3
20260501224739 15 271 0.0 8.0 0.00 0.00 0.00 40 1008.1
20260501224237 15 219 8.0 11.3 0.00 0.00 0.00 40 1008.2
20260501223733 15 203 4.8 11.3 0.00 0.00 0.00 42 1008.2
20260501223229 15 66 1.6 6.4 0.00 0.00 0.00 40 1008.1
20260501222725 15 10 3.2 4.8 0.00 0.00 0.00 42 1008.1
20260501222223 15 5 3.2 4.8 0.00 0.00 0.00 43 1008.0
20260501221720 15 2 3.2 4.8 0.00 0.00 0.00 43 1008.1
20260501221217 15 210 6.4 16.1 0.00 0.00 0.00 39 1008.1
20260501220714 15 240 9.7 11.3 0.00 0.00 0.00 40 1008.3
20260501220212 15 204 6.4 8.0 0.00 0.00 0.00 39 1008.2
20260501215709 15 212 0.0 4.8 0.00 0.00 0.00 40 1008.3
20260501215204 15 281 4.8 12.9 0.00 0.00 0.00 39 1008.4
20260501214659 15 226 6.4 11.3 0.00 0.00 0.00 38 1008.2
20260501214155 15 333 4.8 8.0 0.00 0.00 0.00 37 1008.2
20260501213652 15 211 4.8 8.0 0.00 0.00 0.00 38 1008.2
20260501213147 16 207 8.0 8.0 0.00 0.00 0.00 37 1008.2
20260501212644 16 9 3.2 8.0 0.00 0.00 0.00 36 1008.2
20260501212141 16 219 11.3 14.5 0.00 0.00 0.00 35 1008.1
20260501211638 16 29 3.2 6.4 0.00 0.00 0.00 36 1008.1
20260501211135 16 248 3.2 16.1 0.00 0.00 0.00 36 1008.0
20260501210626 16 315 6.4 8.0 0.00 0.00 0.00 39 1008.1
20260501210123 16 217 8.0 16.1 0.00 0.00 0.00 35 1008.0
20260501205619 17 295 6.4 16.1 0.00 0.00 0.00 36 1008.0
20260501205117 17 313 6.4 8.0 0.00 0.00 0.00 35 1008.1
20260501204613 17 241 3.2 9.7 0.00 0.00 0.00 37 1007.9
20260501204109 16 267 3.2 11.3 0.00 0.00 0.00 37 1008.0
20260501203606 17 300 6.4 8.0 0.00 0.00 0.00 37 1008.0
20260501203104 16 300 3.2 14.5 0.00 0.00 0.00 36 1008.1
20260501202601 16 308 3.2 6.4 0.00 0.00 0.00 35 1008.2
20260501202057 16 237 4.8 25.7 0.00 0.00 0.00 36 1007.8
20260501201554 17 301 3.2 16.1 0.00 0.00 0.00 34 1008.2
20260501201050 16 17 3.2 9.7 0.00 0.00 0.00 37 1008.0
20260501200548 16 299 4.8 11.3 0.00 0.00 0.00 38 1008.1
20260501200045 17 9 0.0 6.4 0.00 0.00 0.00 40 1007.9
20260501195543 17 293 3.2 6.4 0.00 0.00 0.00 34 1007.9
20260501195038 17 267 4.8 16.1 0.00 0.00 0.00 38 1008.1
20260501194533 16 268 6.4 16.1 0.00 0.00 0.00 35 1008.2
20260501194030 17 184 4.8 4.8 0.00 0.00 0.00 34 1008.0
20260501193527 17 351 6.4 8.0 0.00 0.00 0.00 36 1008.0
20260501193025 16 202 4.8 11.3 0.00 0.00 0.00 40 1008.2
20260501192522 15 216 6.4 17.7 0.00 0.00 0.00 36 1008.4
20260501192020 16 290 0.0 9.7 0.00 0.00 0.00 38 1008.3
20260501191516 16 267 6.4 12.9 0.00 0.00 0.00 39 1008.2
20260501191014 15 354 4.8 8.0 0.00 0.00 0.00 44 1008.3
20260501190508 16 28 1.6 9.7 0.00 0.00 0.00 40 1008.4
20260501190004 16 275 6.4 11.3 0.00 0.00 0.00 39 1008.4
20260501185500 16 327 12.9 20.9 0.00 0.00 0.00 40 1008.4
20260501184956 16 284 6.4 9.7 0.00 0.00 0.00 38 1008.4
20260501184453 16 269 4.8 9.7 0.00 0.00 0.00 41 1008.6
20260501183948 16 279 0.0 9.7 0.00 0.00 0.00 35 1008.3
20260501183445 16 164 4.8 9.7 0.00 0.00 0.00 39 1008.7
20260501182942 15 329 6.4 9.7 0.00 0.00 0.00 38 1008.4
20260501182439 15 324 3.2 11.3 0.00 0.00 0.00 36 1008.6
20260501181935 16 255 4.8 14.5 0.00 0.00 0.00 40 1008.8
20260501181432 15 122 8.0 19.3 0.00 0.00 0.00 38 1008.6
20260501180929 15 277 4.8 14.5 0.00 0.00 0.00 40 1008.7